owner,sensor,date,latitude,longitude,air_pressure(mBar),qcFlag 
WAVCIS,ioos:station:WAVCIS:CSI06:1,2008-11-01T00:00:00Z,28.8667,-90.4833,1027.47,11111222 
WAVCIS,ioos:station:WAVCIS:CSI06:1,2008-11-01T02:00:00Z,28.8667,-90.4833,1027.54,11111222 
WAVCIS,ioos:station:WAVCIS:CSI06:1,2008-11-01T03:00:00Z,28.8667,-90.4833,1027.54,11111222 
WAVCIS,ioos:station:WAVCIS:CSI06:1,2008-11-01T04:00:00Z,28.8667,-90.4833,1027.51,11111222 
WAVCIS,ioos:station:WAVCIS:CSI06:1,2008-11-01T05:00:00Z,28.8667,-90.4833,1027.39,11111222 
WAVCIS,ioos:station:WAVCIS:CSI06:1,2008-11-01T06:00:00Z,28.8667,-90.4833,1026.91,11111222 
WAVCIS,ioos:station:WAVCIS:CSI06:1,2008-11-01T07:00:00Z,28.8667,-90.4833,1026.79,11111222 
WAVCIS,ioos:station:WAVCIS:CSI06:1,2008-11-01T08:00:00Z,28.8667,-90.4833,1026.28,11111222 
WAVCIS,ioos:station:WAVCIS:CSI06:1,2008-11-01T09:00:00Z,28.8667,-90.4833,1025.92,11111222 
WAVCIS,ioos:station:WAVCIS:CSI06:1,2008-11-01T10:00:00Z,28.8667,-90.4833,1025.69,11111222 
WAVCIS,ioos:station:WAVCIS:CSI06:1,2008-11-01T11:00:00Z,28.8667,-90.4833,1025.7,11111222 
WAVCIS,ioos:station:WAVCIS:CSI06:1,2008-11-01T12:00:00Z,28.8667,-90.4833,1025.91,11111222 
WAVCIS,ioos:station:WAVCIS:CSI06:1,2008-11-01T13:00:00Z,28.8667,-90.4833,1026.18,11111222 
WAVCIS,ioos:station:WAVCIS:CSI06:1,2008-11-01T15:00:00Z,28.8667,-90.4833,1026.7,11111222 
WAVCIS,ioos:station:WAVCIS:CSI06:1,2008-11-01T16:00:00Z,28.8667,-90.4833,1026.74,11111222 
WAVCIS,ioos:station:WAVCIS:CSI06:1,2008-11-01T17:00:00Z,28.8667,-90.4833,1026.5,11111222 
WAVCIS,ioos:station:WAVCIS:CSI06:1,2008-11-01T19:00:00Z,28.8667,-90.4833,1024.55,11111222 
WAVCIS,ioos:station:WAVCIS:CSI06:1,2008-11-01T20:00:00Z,28.8667,-90.4833,1023.83,11111222 
WAVCIS,ioos:station:WAVCIS:CSI06:1,2008-11-01T21:00:00Z,28.8667,-90.4833,1023.53,11111222 
WAVCIS,ioos:station:WAVCIS:CSI06:1,2008-11-01T22:00:00Z,28.8667,-90.4833,1023.68,11111222 
WAVCIS,ioos:station:WAVCIS:CSI06:1,2008-11-01T23:00:00Z,28.8667,-90.4833,1023.45,11111222 
WAVCIS,ioos:station:WAVCIS:CSI06:1,2008-11-02T00:00:00Z,28.8667,-90.4833,1023.76,11111222 
WAVCIS,ioos:station:WAVCIS:CSI06:1,2008-11-02T01:00:00Z,28.8667,-90.4833,1024.11,11111222 
WAVCIS,ioos:station:WAVCIS:CSI06:1,2008-11-02T02:00:00Z,28.8667,-90.4833,1024.25,11111222 
WAVCIS,ioos:station:WAVCIS:CSI06:1,2008-11-02T03:00:00Z,28.8667,-90.4833,1024.49,11111222 
WAVCIS,ioos:station:WAVCIS:CSI06:1,2008-11-02T04:00:00Z,28.8667,-90.4833,1024.23,11111222 
WAVCIS,ioos:station:WAVCIS:CSI06:1,2008-11-02T05:00:00Z,28.8667,-90.4833,1023.84,11111222 
WAVCIS,ioos:station:WAVCIS:CSI06:1,2008-11-02T06:00:00Z,28.8667,-90.4833,1023.5,11111222 
WAVCIS,ioos:station:WAVCIS:CSI06:1,2008-11-02T07:00:00Z,28.8667,-90.4833,1022.83,11111222 
WAVCIS,ioos:station:WAVCIS:CSI06:1,2008-11-02T08:00:00Z,28.8667,-90.4833,1022.57,11111222 
WAVCIS,ioos:station:WAVCIS:CSI06:1,2008-11-02T09:00:00Z,28.8667,-90.4833,1022.23,11111222 
WAVCIS,ioos:station:WAVCIS:CSI06:1,2008-11-02T10:00:00Z,28.8667,-90.4833,1022.06,11111222 
WAVCIS,ioos:station:WAVCIS:CSI06:1,2008-11-02T11:00:00Z,28.8667,-90.4833,1022.39,11111222 
WAVCIS,ioos:station:WAVCIS:CSI06:1,2008-11-02T12:00:00Z,28.8667,-90.4833,1022.48,11111222 
WAVCIS,ioos:station:WAVCIS:CSI06:1,2008-11-02T13:00:00Z,28.8667,-90.4833,1022.88,11111222 
WAVCIS,ioos:station:WAVCIS:CSI06:1,2008-11-02T14:00:00Z,28.8667,-90.4833,1023.63,11111222 
WAVCIS,ioos:station:WAVCIS:CSI06:1,2008-11-02T15:00:00Z,28.8667,-90.4833,1023.71,11111222 
WAVCIS,ioos:station:WAVCIS:CSI06:1,2008-11-02T16:00:00Z,28.8667,-90.4833,1023.61,11111222 
WAVCIS,ioos:station:WAVCIS:CSI06:1,2008-11-02T17:00:00Z,28.8667,-90.4833,1023.71,11111222 
WAVCIS,ioos:station:WAVCIS:CSI06:1,2008-11-02T18:00:00Z,28.8667,-90.4833,1022.93,11111222 
WAVCIS,ioos:station:WAVCIS:CSI06:1,2008-11-02T19:00:00Z,28.8667,-90.4833,1021.94,11111222 
WAVCIS,ioos:station:WAVCIS:CSI06:1,2008-11-02T20:00:00Z,28.8667,-90.4833,1021.35,11111222 
WAVCIS,ioos:station:WAVCIS:CSI06:1,2008-11-02T21:00:00Z,28.8667,-90.4833,1021.06,11111222 
WAVCIS,ioos:station:WAVCIS:CSI06:1,2008-11-02T22:00:00Z,28.8667,-90.4833,1021.0,11111222 
WAVCIS,ioos:station:WAVCIS:CSI06:1,2008-11-02T23:00:00Z,28.8667,-90.4833,1020.98,11111222 
WAVCIS,ioos:station:WAVCIS:CSI06:1,2008-11-03T00:00:00Z,28.8667,-90.4833,1021.26,11111222 
WAVCIS,ioos:station:WAVCIS:CSI06:1,2008-11-03T01:00:00Z,28.8667,-90.4833,1021.54,11111222 
WAVCIS,ioos:station:WAVCIS:CSI06:1,2008-11-03T02:00:00Z,28.8667,-90.4833,1021.85,11111222 
WAVCIS,ioos:station:WAVCIS:CSI06:1,2008-11-03T03:00:00Z,28.8667,-90.4833,1021.99,11111222 
WAVCIS,ioos:station:WAVCIS:CSI06:1,2008-11-03T04:00:00Z,28.8667,-90.4833,1021.68,11111222 
WAVCIS,ioos:station:WAVCIS:CSI06:1,2008-11-03T05:00:00Z,28.8667,-90.4833,1021.16,11111222 
WAVCIS,ioos:station:WAVCIS:CSI06:1,2008-11-03T06:00:00Z,28.8667,-90.4833,1020.83,11111222 
WAVCIS,ioos:station:WAVCIS:CSI06:1,2008-11-03T07:00:00Z,28.8667,-90.4833,1020.58,11111222 
WAVCIS,ioos:station:WAVCIS:CSI06:1,2008-11-03T08:00:00Z,28.8667,-90.4833,1020.4,11111222 
WAVCIS,ioos:station:WAVCIS:CSI06:1,2008-11-03T09:00:00Z,28.8667,-90.4833,1020.33,11111222 
WAVCIS,ioos:station:WAVCIS:CSI06:1,2008-11-03T10:00:00Z,28.8667,-90.4833,1020.33,11111222 
WAVCIS,ioos:station:WAVCIS:CSI06:1,2008-11-03T11:00:00Z,28.8667,-90.4833,1020.39,11111222 
WAVCIS,ioos:station:WAVCIS:CSI06:1,2008-11-03T12:00:00Z,28.8667,-90.4833,1020.94,11111222 
WAVCIS,ioos:station:WAVCIS:CSI06:1,2008-11-03T13:00:00Z,28.8667,-90.4833,1021.06,11111222 
WAVCIS,ioos:station:WAVCIS:CSI06:1,2008-11-03T14:00:00Z,28.8667,-90.4833,1021.33,11111222 
WAVCIS,ioos:station:WAVCIS:CSI06:1,2008-11-03T15:00:00Z,28.8667,-90.4833,1021.57,11111222 
WAVCIS,ioos:station:WAVCIS:CSI06:1,2008-11-03T16:00:00Z,28.8667,-90.4833,1021.76,11111222 
WAVCIS,ioos:station:WAVCIS:CSI06:1,2008-11-03T17:00:00Z,28.8667,-90.4833,1021.28,11111222 
WAVCIS,ioos:station:WAVCIS:CSI06:1,2008-11-03T18:00:00Z,28.8667,-90.4833,1020.48,11111222 
WAVCIS,ioos:station:WAVCIS:CSI06:1,2008-11-03T19:00:00Z,28.8667,-90.4833,1019.6,11111222 
WAVCIS,ioos:station:WAVCIS:CSI06:1,2008-11-03T20:00:00Z,28.8667,-90.4833,1019.14,11111222 
WAVCIS,ioos:station:WAVCIS:CSI06:1,2008-11-03T21:00:00Z,28.8667,-90.4833,1019.15,11111222 
WAVCIS,ioos:station:WAVCIS:CSI06:1,2008-11-03T22:00:00Z,28.8667,-90.4833,1019.25,11111222 
WAVCIS,ioos:station:WAVCIS:CSI06:1,2008-11-03T23:00:00Z,28.8667,-90.4833,1018.97,11111222 
WAVCIS,ioos:station:WAVCIS:CSI06:1,2008-11-04T00:00:00Z,28.8667,-90.4833,1019.34,11111222 
WAVCIS,ioos:station:WAVCIS:CSI06:1,2008-11-04T01:00:00Z,28.8667,-90.4833,1019.94,11111222 
WAVCIS,ioos:station:WAVCIS:CSI06:1,2008-11-04T02:00:00Z,28.8667,-90.4833,1019.97,11111222 
WAVCIS,ioos:station:WAVCIS:CSI06:1,2008-11-04T03:00:00Z,28.8667,-90.4833,1020.23,11111222 
WAVCIS,ioos:station:WAVCIS:CSI06:1,2008-11-04T04:00:00Z,28.8667,-90.4833,1019.94,11111222 
WAVCIS,ioos:station:WAVCIS:CSI06:1,2008-11-04T05:00:00Z,28.8667,-90.4833,1019.56,11111222 
WAVCIS,ioos:station:WAVCIS:CSI06:1,2008-11-04T06:00:00Z,28.8667,-90.4833,1019.27,11111222 
WAVCIS,ioos:station:WAVCIS:CSI06:1,2008-11-04T07:00:00Z,28.8667,-90.4833,1019.26,11111222 
WAVCIS,ioos:station:WAVCIS:CSI06:1,2008-11-04T08:00:00Z,28.8667,-90.4833,1018.92,11111222 
WAVCIS,ioos:station:WAVCIS:CSI06:1,2008-11-04T09:00:00Z,28.8667,-90.4833,1018.38,11111222 
WAVCIS,ioos:station:WAVCIS:CSI06:1,2008-11-04T10:00:00Z,28.8667,-90.4833,1018.54,11111222 
WAVCIS,ioos:station:WAVCIS:CSI06:1,2008-11-04T11:00:00Z,28.8667,-90.4833,1018.86,11111222 
WAVCIS,ioos:station:WAVCIS:CSI06:1,2008-11-04T12:00:00Z,28.8667,-90.4833,1019.21,11111222 
WAVCIS,ioos:station:WAVCIS:CSI06:1,2008-11-04T13:00:00Z,28.8667,-90.4833,1019.71,11111222 
WAVCIS,ioos:station:WAVCIS:CSI06:1,2008-11-04T14:00:00Z,28.8667,-90.4833,1019.81,11111222 
WAVCIS,ioos:station:WAVCIS:CSI06:1,2008-11-04T15:00:00Z,28.8667,-90.4833,1020.24,11111222 
WAVCIS,ioos:station:WAVCIS:CSI06:1,2008-11-04T16:00:00Z,28.8667,-90.4833,1020.24,11111222 
WAVCIS,ioos:station:WAVCIS:CSI06:1,2008-11-04T17:00:00Z,28.8667,-90.4833,1019.93,11111222 
WAVCIS,ioos:station:WAVCIS:CSI06:1,2008-11-04T18:00:00Z,28.8667,-90.4833,1018.94,11111222 
WAVCIS,ioos:station:WAVCIS:CSI06:1,2008-11-04T19:00:00Z,28.8667,-90.4833,1018.15,11111222 
WAVCIS,ioos:station:WAVCIS:CSI06:1,2008-11-04T20:00:00Z,28.8667,-90.4833,1017.58,11111222 
WAVCIS,ioos:station:WAVCIS:CSI06:1,2008-11-04T21:00:00Z,28.8667,-90.4833,1017.31,11111222 
WAVCIS,ioos:station:WAVCIS:CSI06:1,2008-11-04T22:00:00Z,28.8667,-90.4833,1017.22,11111222 
WAVCIS,ioos:station:WAVCIS:CSI06:1,2008-11-04T23:00:00Z,28.8667,-90.4833,1017.5,11111222 
WAVCIS,ioos:station:WAVCIS:CSI06:1,2008-11-05T00:00:00Z,28.8667,-90.4833,1017.83,11111222 
WAVCIS,ioos:station:WAVCIS:CSI06:1,2008-11-05T01:00:00Z,28.8667,-90.4833,1018.24,11111222 
WAVCIS,ioos:station:WAVCIS:CSI06:1,2008-11-05T02:00:00Z,28.8667,-90.4833,1018.76,11111222 
WAVCIS,ioos:station:WAVCIS:CSI06:1,2008-11-05T03:00:00Z,28.8667,-90.4833,1018.78,11111222 
WAVCIS,ioos:station:WAVCIS:CSI06:1,2008-11-05T04:00:00Z,28.8667,-90.4833,1018.61,11111222 
WAVCIS,ioos:station:WAVCIS:CSI06:1,2008-11-05T05:00:00Z,28.8667,-90.4833,1018.17,11111222 
WAVCIS,ioos:station:WAVCIS:CSI06:1,2008-11-05T06:00:00Z,28.8667,-90.4833,1017.72,11111222 
WAVCIS,ioos:station:WAVCIS:CSI06:1,2008-11-05T07:00:00Z,28.8667,-90.4833,1017.41,11111222 
WAVCIS,ioos:station:WAVCIS:CSI06:1,2008-11-05T08:00:00Z,28.8667,-90.4833,1017.14,11111222 
WAVCIS,ioos:station:WAVCIS:CSI06:1,2008-11-05T09:00:00Z,28.8667,-90.4833,1016.82,11111222 
WAVCIS,ioos:station:WAVCIS:CSI06:1,2008-11-05T10:00:00Z,28.8667,-90.4833,1016.8,11111222 
WAVCIS,ioos:station:WAVCIS:CSI06:1,2008-11-05T11:00:00Z,28.8667,-90.4833,1016.79,11111222 
WAVCIS,ioos:station:WAVCIS:CSI06:1,2008-11-05T12:00:00Z,28.8667,-90.4833,1016.96,11111222 
WAVCIS,ioos:station:WAVCIS:CSI06:1,2008-11-05T13:00:00Z,28.8667,-90.4833,1017.34,11111222 
WAVCIS,ioos:station:WAVCIS:CSI06:1,2008-11-05T14:00:00Z,28.8667,-90.4833,1017.64,11111222 
WAVCIS,ioos:station:WAVCIS:CSI06:1,2008-11-05T15:00:00Z,28.8667,-90.4833,1018.01,11111222 
WAVCIS,ioos:station:WAVCIS:CSI06:1,2008-11-05T16:00:00Z,28.8667,-90.4833,1018.21,11111222 
WAVCIS,ioos:station:WAVCIS:CSI06:1,2008-11-05T17:00:00Z,28.8667,-90.4833,1017.75,11111222 
WAVCIS,ioos:station:WAVCIS:CSI06:1,2008-11-05T18:00:00Z,28.8667,-90.4833,1016.96,11111222 
WAVCIS,ioos:station:WAVCIS:CSI06:1,2008-11-05T19:00:00Z,28.8667,-90.4833,1016.27,11111222 
WAVCIS,ioos:station:WAVCIS:CSI06:1,2008-11-05T20:00:00Z,28.8667,-90.4833,1015.77,11111222 
WAVCIS,ioos:station:WAVCIS:CSI06:1,2008-11-05T21:00:00Z,28.8667,-90.4833,1015.63,11111222 
WAVCIS,ioos:station:WAVCIS:CSI06:1,2008-11-05T22:00:00Z,28.8667,-90.4833,1015.56,11111222 
WAVCIS,ioos:station:WAVCIS:CSI06:1,2008-11-05T23:00:00Z,28.8667,-90.4833,1015.37,11111222 
WAVCIS,ioos:station:WAVCIS:CSI06:1,2008-11-06T00:00:00Z,28.8667,-90.4833,1015.45,11111222 
WAVCIS,ioos:station:WAVCIS:CSI06:1,2008-11-06T01:00:00Z,28.8667,-90.4833,1015.45,11111222 
WAVCIS,ioos:station:WAVCIS:CSI06:1,2008-11-06T02:00:00Z,28.8667,-90.4833,1015.81,11111222 
WAVCIS,ioos:station:WAVCIS:CSI06:1,2008-11-06T03:00:00Z,28.8667,-90.4833,1015.57,11111222 
WAVCIS,ioos:station:WAVCIS:CSI06:1,2008-11-06T05:00:00Z,28.8667,-90.4833,1015.22,11111222 
WAVCIS,ioos:station:WAVCIS:CSI06:1,2008-11-06T06:00:00Z,28.8667,-90.4833,1014.65,11111222 
WAVCIS,ioos:station:WAVCIS:CSI06:1,2008-11-06T08:00:00Z,28.8667,-90.4833,1014.32,11111222 
WAVCIS,ioos:station:WAVCIS:CSI06:1,2008-11-06T09:00:00Z,28.8667,-90.4833,1014.22,11111222 
WAVCIS,ioos:station:WAVCIS:CSI06:1,2008-11-06T10:00:00Z,28.8667,-90.4833,1014.45,11111222 
WAVCIS,ioos:station:WAVCIS:CSI06:1,2008-11-06T11:00:00Z,28.8667,-90.4833,1014.67,11111222 
WAVCIS,ioos:station:WAVCIS:CSI06:1,2008-11-06T12:00:00Z,28.8667,-90.4833,1014.99,11111222 
WAVCIS,ioos:station:WAVCIS:CSI06:1,2008-11-06T13:00:00Z,28.8667,-90.4833,1015.47,11111222 
WAVCIS,ioos:station:WAVCIS:CSI06:1,2008-11-06T14:00:00Z,28.8667,-90.4833,1016.04,11111222 
WAVCIS,ioos:station:WAVCIS:CSI06:1,2008-11-06T15:00:00Z,28.8667,-90.4833,1016.24,11111222 
WAVCIS,ioos:station:WAVCIS:CSI06:1,2008-11-06T16:00:00Z,28.8667,-90.4833,1016.44,11111222 
WAVCIS,ioos:station:WAVCIS:CSI06:1,2008-11-06T17:00:00Z,28.8667,-90.4833,1016.05,11111222 
WAVCIS,ioos:station:WAVCIS:CSI06:1,2008-11-06T19:00:00Z,28.8667,-90.4833,1014.51,11111222 
WAVCIS,ioos:station:WAVCIS:CSI06:1,2008-11-06T20:00:00Z,28.8667,-90.4833,1013.93,11111222 
WAVCIS,ioos:station:WAVCIS:CSI06:1,2008-11-06T21:00:00Z,28.8667,-90.4833,1014.03,11111222 
WAVCIS,ioos:station:WAVCIS:CSI06:1,2008-11-06T22:00:00Z,28.8667,-90.4833,1014.42,11111222 
WAVCIS,ioos:station:WAVCIS:CSI06:1,2008-11-06T23:00:00Z,28.8667,-90.4833,1014.17,11111222 
WAVCIS,ioos:station:WAVCIS:CSI06:1,2008-11-07T00:00:00Z,28.8667,-90.4833,1014.98,11111222 
WAVCIS,ioos:station:WAVCIS:CSI06:1,2008-11-07T01:00:00Z,28.8667,-90.4833,1015.03,11111222 
WAVCIS,ioos:station:WAVCIS:CSI06:1,2008-11-07T02:00:00Z,28.8667,-90.4833,1014.99,11111222 
WAVCIS,ioos:station:WAVCIS:CSI06:1,2008-11-07T03:00:00Z,28.8667,-90.4833,1015.23,11111222 
WAVCIS,ioos:station:WAVCIS:CSI06:1,2008-11-07T04:00:00Z,28.8667,-90.4833,1015.24,11111222 
WAVCIS,ioos:station:WAVCIS:CSI06:1,2008-11-07T05:00:00Z,28.8667,-90.4833,1015.1,11111222 
WAVCIS,ioos:station:WAVCIS:CSI06:1,2008-11-07T06:00:00Z,28.8667,-90.4833,1014.61,11111222 
WAVCIS,ioos:station:WAVCIS:CSI06:1,2008-11-07T07:00:00Z,28.8667,-90.4833,1014.26,11111222 
WAVCIS,ioos:station:WAVCIS:CSI06:1,2008-11-07T08:00:00Z,28.8667,-90.4833,1013.82,11111222 
WAVCIS,ioos:station:WAVCIS:CSI06:1,2008-11-07T09:00:00Z,28.8667,-90.4833,1013.52,11111222 
WAVCIS,ioos:station:WAVCIS:CSI06:1,2008-11-07T10:00:00Z,28.8667,-90.4833,1013.43,11111222 
WAVCIS,ioos:station:WAVCIS:CSI06:1,2008-11-07T11:00:00Z,28.8667,-90.4833,1013.62,11111222 
WAVCIS,ioos:station:WAVCIS:CSI06:1,2008-11-07T12:00:00Z,28.8667,-90.4833,1013.93,11111222 
WAVCIS,ioos:station:WAVCIS:CSI06:1,2008-11-07T13:00:00Z,28.8667,-90.4833,1014.18,11111222 
WAVCIS,ioos:station:WAVCIS:CSI06:1,2008-11-07T14:00:00Z,28.8667,-90.4833,1014.39,11111222 
WAVCIS,ioos:station:WAVCIS:CSI06:1,2008-11-07T15:00:00Z,28.8667,-90.4833,1015.34,11111222 
WAVCIS,ioos:station:WAVCIS:CSI06:1,2008-11-07T16:00:00Z,28.8667,-90.4833,1014.99,11111222 
WAVCIS,ioos:station:WAVCIS:CSI06:1,2008-11-07T17:00:00Z,28.8667,-90.4833,1015.38,11111222 
WAVCIS,ioos:station:WAVCIS:CSI06:1,2008-11-07T18:00:00Z,28.8667,-90.4833,1014.71,11111222 
WAVCIS,ioos:station:WAVCIS:CSI06:1,2008-11-07T19:00:00Z,28.8667,-90.4833,1014.33,11111222 
WAVCIS,ioos:station:WAVCIS:CSI06:1,2008-11-07T20:00:00Z,28.8667,-90.4833,1014.01,11111222 
WAVCIS,ioos:station:WAVCIS:CSI06:1,2008-11-07T21:00:00Z,28.8667,-90.4833,1014.03,11111222 
WAVCIS,ioos:station:WAVCIS:CSI06:1,2008-11-07T22:00:00Z,28.8667,-90.4833,1014.22,11111222 
WAVCIS,ioos:station:WAVCIS:CSI06:1,2008-11-07T23:00:00Z,28.8667,-90.4833,1014.45,11111222 
WAVCIS,ioos:station:WAVCIS:CSI06:1,2008-11-08T00:00:00Z,28.8667,-90.4833,1014.99,11111222 
WAVCIS,ioos:station:WAVCIS:CSI06:1,2008-11-08T01:00:00Z,28.8667,-90.4833,1015.58,11111222 
WAVCIS,ioos:station:WAVCIS:CSI06:1,2008-11-08T02:00:00Z,28.8667,-90.4833,1015.8,11111222 
WAVCIS,ioos:station:WAVCIS:CSI06:1,2008-11-08T03:00:00Z,28.8667,-90.4833,1016.52,11111222 
WAVCIS,ioos:station:WAVCIS:CSI06:1,2008-11-08T04:00:00Z,28.8667,-90.4833,1016.77,11111222 
WAVCIS,ioos:station:WAVCIS:CSI06:1,2008-11-08T05:00:00Z,28.8667,-90.4833,1016.81,11111222 
WAVCIS,ioos:station:WAVCIS:CSI06:1,2008-11-08T06:00:00Z,28.8667,-90.4833,1016.57,11111222 
WAVCIS,ioos:station:WAVCIS:CSI06:1,2008-11-08T07:00:00Z,28.8667,-90.4833,1016.57,11111222 
WAVCIS,ioos:station:WAVCIS:CSI06:1,2008-11-08T09:00:00Z,28.8667,-90.4833,1016.25,11111222 
WAVCIS,ioos:station:WAVCIS:CSI06:1,2008-11-08T10:00:00Z,28.8667,-90.4833,1016.25,11111222 
WAVCIS,ioos:station:WAVCIS:CSI06:1,2008-11-08T11:00:00Z,28.8667,-90.4833,1016.54,11111222 
WAVCIS,ioos:station:WAVCIS:CSI06:1,2008-11-08T12:00:00Z,28.8667,-90.4833,1016.58,11111222 
WAVCIS,ioos:station:WAVCIS:CSI06:1,2008-11-08T13:00:00Z,28.8667,-90.4833,1017.25,11111222 
WAVCIS,ioos:station:WAVCIS:CSI06:1,2008-11-08T14:00:00Z,28.8667,-90.4833,1017.9,11111222 
WAVCIS,ioos:station:WAVCIS:CSI06:1,2008-11-08T15:00:00Z,28.8667,-90.4833,1018.25,11111222 
WAVCIS,ioos:station:WAVCIS:CSI06:1,2008-11-08T16:00:00Z,28.8667,-90.4833,1018.18,11111222 
WAVCIS,ioos:station:WAVCIS:CSI06:1,2008-11-08T17:00:00Z,28.8667,-90.4833,1017.95,11111222 
WAVCIS,ioos:station:WAVCIS:CSI06:1,2008-11-08T18:00:00Z,28.8667,-90.4833,1017.17,11111222 
WAVCIS,ioos:station:WAVCIS:CSI06:1,2008-11-08T19:00:00Z,28.8667,-90.4833,1016.18,11111222 
WAVCIS,ioos:station:WAVCIS:CSI06:1,2008-11-08T20:00:00Z,28.8667,-90.4833,1015.58,11111222 
WAVCIS,ioos:station:WAVCIS:CSI06:1,2008-11-08T21:00:00Z,28.8667,-90.4833,1015.15,11111222 
WAVCIS,ioos:station:WAVCIS:CSI06:1,2008-11-08T22:00:00Z,28.8667,-90.4833,1015.03,11111222 
WAVCIS,ioos:station:WAVCIS:CSI06:1,2008-11-08T23:00:00Z,28.8667,-90.4833,1015.21,11111222 
WAVCIS,ioos:station:WAVCIS:CSI06:1,2008-11-09T00:00:00Z,28.8667,-90.4833,1015.41,11111222 
WAVCIS,ioos:station:WAVCIS:CSI06:1,2008-11-09T01:00:00Z,28.8667,-90.4833,1015.43,11111222 
WAVCIS,ioos:station:WAVCIS:CSI06:1,2008-11-09T02:00:00Z,28.8667,-90.4833,1015.58,11111222 
WAVCIS,ioos:station:WAVCIS:CSI06:1,2008-11-09T03:00:00Z,28.8667,-90.4833,1015.62,11111222 
WAVCIS,ioos:station:WAVCIS:CSI06:1,2008-11-09T04:00:00Z,28.8667,-90.4833,1015.76,11111222 
WAVCIS,ioos:station:WAVCIS:CSI06:1,2008-11-09T05:00:00Z,28.8667,-90.4833,1015.8,11111222 
WAVCIS,ioos:station:WAVCIS:CSI06:1,2008-11-09T06:00:00Z,28.8667,-90.4833,1015.46,11111222 
WAVCIS,ioos:station:WAVCIS:CSI06:1,2008-11-09T07:00:00Z,28.8667,-90.4833,1015.59,11111222 
WAVCIS,ioos:station:WAVCIS:CSI06:1,2008-11-09T08:00:00Z,28.8667,-90.4833,1015.49,11111222 
WAVCIS,ioos:station:WAVCIS:CSI06:1,2008-11-09T09:00:00Z,28.8667,-90.4833,1015.69,11111222 
WAVCIS,ioos:station:WAVCIS:CSI06:1,2008-11-09T10:00:00Z,28.8667,-90.4833,1015.98,11111222 
WAVCIS,ioos:station:WAVCIS:CSI06:1,2008-11-09T11:00:00Z,28.8667,-90.4833,1016.56,11111222 
WAVCIS,ioos:station:WAVCIS:CSI06:1,2008-11-09T12:00:00Z,28.8667,-90.4833,1017.3,11111222 
WAVCIS,ioos:station:WAVCIS:CSI06:1,2008-11-09T13:00:00Z,28.8667,-90.4833,1017.67,11111222 
WAVCIS,ioos:station:WAVCIS:CSI06:1,2008-11-09T15:00:00Z,28.8667,-90.4833,1018.66,11111222 
WAVCIS,ioos:station:WAVCIS:CSI06:1,2008-11-09T16:00:00Z,28.8667,-90.4833,1018.95,11111222 
WAVCIS,ioos:station:WAVCIS:CSI06:1,2008-11-09T17:00:00Z,28.8667,-90.4833,1018.73,11111222 
WAVCIS,ioos:station:WAVCIS:CSI06:1,2008-11-09T18:00:00Z,28.8667,-90.4833,1018.24,11111222 
WAVCIS,ioos:station:WAVCIS:CSI06:1,2008-11-09T19:00:00Z,28.8667,-90.4833,1017.53,11111222 
WAVCIS,ioos:station:WAVCIS:CSI06:1,2008-11-09T20:00:00Z,28.8667,-90.4833,1017.01,11111222 
WAVCIS,ioos:station:WAVCIS:CSI06:1,2008-11-09T21:00:00Z,28.8667,-90.4833,1017.01,11111222 
WAVCIS,ioos:station:WAVCIS:CSI06:1,2008-11-09T22:00:00Z,28.8667,-90.4833,1017.18,11111222 
WAVCIS,ioos:station:WAVCIS:CSI06:1,2008-11-09T23:00:00Z,28.8667,-90.4833,1017.05,11111222 
WAVCIS,ioos:station:WAVCIS:CSI06:1,2008-11-10T00:00:00Z,28.8667,-90.4833,1017.48,11111222 
WAVCIS,ioos:station:WAVCIS:CSI06:1,2008-11-10T01:00:00Z,28.8667,-90.4833,1017.9,11111222 
WAVCIS,ioos:station:WAVCIS:CSI06:1,2008-11-10T02:00:00Z,28.8667,-90.4833,1018.34,11111222 
WAVCIS,ioos:station:WAVCIS:CSI06:1,2008-11-10T04:00:00Z,28.8667,-90.4833,1018.74,11111222 
WAVCIS,ioos:station:WAVCIS:CSI06:1,2008-11-10T05:00:00Z,28.8667,-90.4833,1018.75,11111222 
WAVCIS,ioos:station:WAVCIS:CSI06:1,2008-11-10T06:00:00Z,28.8667,-90.4833,1018.46,11111222 
WAVCIS,ioos:station:WAVCIS:CSI06:1,2008-11-10T07:00:00Z,28.8667,-90.4833,1018.19,11111222 
WAVCIS,ioos:station:WAVCIS:CSI06:1,2008-11-10T08:00:00Z,28.8667,-90.4833,1017.86,11111222 
WAVCIS,ioos:station:WAVCIS:CSI06:1,2008-11-10T09:00:00Z,28.8667,-90.4833,1018.01,11111222 
WAVCIS,ioos:station:WAVCIS:CSI06:1,2008-11-10T10:00:00Z,28.8667,-90.4833,1018.2,11111222 
WAVCIS,ioos:station:WAVCIS:CSI06:1,2008-11-10T11:00:00Z,28.8667,-90.4833,1018.31,11111222 
WAVCIS,ioos:station:WAVCIS:CSI06:1,2008-11-10T12:00:00Z,28.8667,-90.4833,1018.56,11111222 
WAVCIS,ioos:station:WAVCIS:CSI06:1,2008-11-10T13:00:00Z,28.8667,-90.4833,1019.17,11111222 
WAVCIS,ioos:station:WAVCIS:CSI06:1,2008-11-10T14:00:00Z,28.8667,-90.4833,1019.67,11111222 
WAVCIS,ioos:station:WAVCIS:CSI06:1,2008-11-10T15:00:00Z,28.8667,-90.4833,1019.61,11111222 
WAVCIS,ioos:station:WAVCIS:CSI06:1,2008-11-10T16:00:00Z,28.8667,-90.4833,1019.74,11111222 
WAVCIS,ioos:station:WAVCIS:CSI06:1,2008-11-10T17:00:00Z,28.8667,-90.4833,1019.31,11111222 
WAVCIS,ioos:station:WAVCIS:CSI06:1,2008-11-10T18:00:00Z,28.8667,-90.4833,1018.4,11111222 
WAVCIS,ioos:station:WAVCIS:CSI06:1,2008-11-10T19:00:00Z,28.8667,-90.4833,1017.7,11111222 
WAVCIS,ioos:station:WAVCIS:CSI06:1,2008-11-10T20:00:00Z,28.8667,-90.4833,1017.54,11111222 
WAVCIS,ioos:station:WAVCIS:CSI06:1,2008-11-10T21:00:00Z,28.8667,-90.4833,1017.96,11111222 
WAVCIS,ioos:station:WAVCIS:CSI06:1,2008-11-10T22:00:00Z,28.8667,-90.4833,1017.22,11111222 
WAVCIS,ioos:station:WAVCIS:CSI06:1,2008-11-10T23:00:00Z,28.8667,-90.4833,1017.02,11111222 
WAVCIS,ioos:station:WAVCIS:CSI06:1,2008-11-11T00:00:00Z,28.8667,-90.4833,1017.35,11111222 
WAVCIS,ioos:station:WAVCIS:CSI06:1,2008-11-11T01:00:00Z,28.8667,-90.4833,1017.23,11111222 
WAVCIS,ioos:station:WAVCIS:CSI06:1,2008-11-11T02:00:00Z,28.8667,-90.4833,1017.79,11111222 
WAVCIS,ioos:station:WAVCIS:CSI06:1,2008-11-11T03:00:00Z,28.8667,-90.4833,1017.82,11111222 
WAVCIS,ioos:station:WAVCIS:CSI06:1,2008-11-11T04:00:00Z,28.8667,-90.4833,1017.89,11111222 
WAVCIS,ioos:station:WAVCIS:CSI06:1,2008-11-11T05:00:00Z,28.8667,-90.4833,1017.68,11111222 
WAVCIS,ioos:station:WAVCIS:CSI06:1,2008-11-11T06:00:00Z,28.8667,-90.4833,1017.28,11111222 
WAVCIS,ioos:station:WAVCIS:CSI06:1,2008-11-11T07:00:00Z,28.8667,-90.4833,1017.13,11111222 
WAVCIS,ioos:station:WAVCIS:CSI06:1,2008-11-11T08:00:00Z,28.8667,-90.4833,1016.33,11111222 
WAVCIS,ioos:station:WAVCIS:CSI06:1,2008-11-11T09:00:00Z,28.8667,-90.4833,1016.37,11111222 
WAVCIS,ioos:station:WAVCIS:CSI06:1,2008-11-11T10:00:00Z,28.8667,-90.4833,1015.99,11111222 
WAVCIS,ioos:station:WAVCIS:CSI06:1,2008-11-11T11:00:00Z,28.8667,-90.4833,1016.47,11111222 
WAVCIS,ioos:station:WAVCIS:CSI06:1,2008-11-11T12:00:00Z,28.8667,-90.4833,1016.92,11111222 
WAVCIS,ioos:station:WAVCIS:CSI06:1,2008-11-11T13:00:00Z,28.8667,-90.4833,1017.35,11111222 
WAVCIS,ioos:station:WAVCIS:CSI06:1,2008-11-11T14:00:00Z,28.8667,-90.4833,1017.47,11111222 
WAVCIS,ioos:station:WAVCIS:CSI06:1,2008-11-11T15:00:00Z,28.8667,-90.4833,1017.87,11111222 
WAVCIS,ioos:station:WAVCIS:CSI06:1,2008-11-11T16:00:00Z,28.8667,-90.4833,1017.9,11111222 
WAVCIS,ioos:station:WAVCIS:CSI06:1,2008-11-11T17:00:00Z,28.8667,-90.4833,1017.32,11111222 
WAVCIS,ioos:station:WAVCIS:CSI06:1,2008-11-11T18:00:00Z,28.8667,-90.4833,1016.41,11111222 
WAVCIS,ioos:station:WAVCIS:CSI06:1,2008-11-11T19:00:00Z,28.8667,-90.4833,1015.63,11111222 
WAVCIS,ioos:station:WAVCIS:CSI06:1,2008-11-11T20:00:00Z,28.8667,-90.4833,1015.07,11111222 
WAVCIS,ioos:station:WAVCIS:CSI06:1,2008-11-11T21:00:00Z,28.8667,-90.4833,1014.84,11111222 
WAVCIS,ioos:station:WAVCIS:CSI06:1,2008-11-11T22:00:00Z,28.8667,-90.4833,1014.71,11111222 
WAVCIS,ioos:station:WAVCIS:CSI06:1,2008-11-11T23:00:00Z,28.8667,-90.4833,1014.9,11111222 
WAVCIS,ioos:station:WAVCIS:CSI06:1,2008-11-12T00:00:00Z,28.8667,-90.4833,1015.03,11111222 
WAVCIS,ioos:station:WAVCIS:CSI06:1,2008-11-12T01:00:00Z,28.8667,-90.4833,1015.31,11111222 
WAVCIS,ioos:station:WAVCIS:CSI06:1,2008-11-12T02:00:00Z,28.8667,-90.4833,1015.47,11111222 
WAVCIS,ioos:station:WAVCIS:CSI06:1,2008-11-12T03:00:00Z,28.8667,-90.4833,1015.78,11111222 
WAVCIS,ioos:station:WAVCIS:CSI06:1,2008-11-12T04:00:00Z,28.8667,-90.4833,1015.41,11111222 
WAVCIS,ioos:station:WAVCIS:CSI06:1,2008-11-12T06:00:00Z,28.8667,-90.4833,1014.33,11111222 
WAVCIS,ioos:station:WAVCIS:CSI06:1,2008-11-12T07:00:00Z,28.8667,-90.4833,1013.76,11111222 
WAVCIS,ioos:station:WAVCIS:CSI06:1,2008-11-12T08:00:00Z,28.8667,-90.4833,1012.79,11111222 